Weather History for KRHP - August, 2013

Change the Weather History Date:

Monday, August 19, 2013

  Actual Average (KTYS) Record (KTYS)
Temperature  
Mean Temperature 70 °F 78 °F  
Max Temperature 76 °F 88 °F 98 °F (1936)
Min Temperature 63 °F 68 °F 57 °F (1943)
Degree Days  
Heating Degree Days 0 0  
Month to date heating degree days 0  
Since 1 June heating degree days 4  
Since 1 July heating degree days 0  
Cooling Degree Days 4 13  
Month to date cooling degree days 247  
Year to date cooling degree days 1131  
Since 1 June cooling degree days 969  
Growing Degree Days 20 (Base 50)    
Moisture  
Dew Point 67 °F    
Average Humidity 93    
Maximum Humidity 100    
Minimum Humidity 77    
Precipitation  
Precipitation 0.01 in 0.11 in 0.91 in (2009)
Month to date precipitation 2.17  
Year to date precipitation 32.50  
Snow  
Snow 0.00 in 0.00 in - ()
Month to date snowfall 0.0  
Since 1 June snowfall 0.0  
Since 1 July snowfall 0.0  
Snow Depth -    
Sea Level Pressure  
Sea Level Pressure 30.17 in    
Wind  
Wind Speed 0 mph (WNW)    
Max Wind Speed 7 mph    
Max Gust Speed -    
Visibility 9 miles    
Events Rain    
T = Trace of Precipitation, MM = Missing Value Source: NWS Daily Summary

Daily Weather History Graph

Daily Weather History Graph

Search for Another Location

Airport or City:

Trip Planner

Search our weather history database for the weather conditions in past years. The results will help you decide how hot, cold, wet, or windy it might be!

Date:

Astronomy

Aug. 19, 2013 Rise Set
Actual Time 6:58 AM EDT 8:18 PM EDT
Civil Twilight 6:31 AM EDT 8:45 PM EDT
Nautical Twilight 5:59 AM EDT 9:17 PM EDT
Astronomical Twilight 5:26 AM EDT 9:50 PM EDT
Moon 7:09 PM EDT (8/19) 5:17 AM EDT (8/19)
Length of Visible Light 14h 13m
Length of Day
13h 20m
Waxing Gibbous, 97% of the Moon is Illuminated
Aug 19
Waxing Gibbous
Aug 20
Full
Aug 28
Last Quarter
Sep 5
New
Sep 12
First Quarter

Hourly Weather History & Observations

Time (EDT) Temp. Dew Point Humidity Pressure Visibility Wind Dir Wind Speed Gust Speed Precip Events Conditions
12:15 AM 65.3 °F 64.8 °F 98% 30.22 in 10.0 mi Calm Calm - N/A   Overcast
12:35 AM 64.9 °F 64.6 °F 99% 30.21 in 10.0 mi Calm Calm - N/A   Overcast
12:55 AM 65.3 °F 64.4 °F 97% 30.21 in 10.0 mi Calm Calm - N/A   Overcast
1:15 AM 64.8 °F 64.6 °F 99% 30.22 in 7.0 mi Calm Calm - N/A Rain Light Rain
1:35 AM 64.9 °F 64.6 °F 99% 30.21 in 10.0 mi Calm Calm - N/A   Light Drizzle
1:55 AM 64.8 °F 64.6 °F 99% 30.22 in 5.0 mi Calm Calm - N/A Rain Rain
2:15 AM 64.8 °F 64.6 °F 99% 30.21 in 4.0 mi Calm Calm - N/A Rain Rain
2:35 AM 64.4 °F 64.4 °F 100% 30.21 in 3.0 mi Calm Calm - N/A Rain Rain
2:55 AM 64.4 °F 64.4 °F 100% 30.20 in 4.0 mi Calm Calm - N/A Rain Rain
3:15 AM 64.4 °F 64.2 °F 99% 30.20 in 3.0 mi NE 4.6 mph - N/A Rain Rain
3:35 AM 64.4 °F 63.9 °F 98% 30.19 in 3.0 mi Calm Calm - N/A Rain Rain
3:55 AM 63.9 °F 63.7 °F 99% 30.20 in 4.0 mi Calm Calm - N/A Rain Rain
4:15 AM 63.9 °F 63.9 °F 100% 30.19 in 5.0 mi Calm Calm - N/A Rain Light Rain
4:35 AM 64.0 °F 63.9 °F 99% 30.18 in 4.0 mi Calm Calm - N/A Rain Heavy Rain
4:55 AM 64.0 °F 63.9 °F 99% 30.18 in 7.0 mi Calm Calm - N/A Rain Light Rain
5:15 AM 64.0 °F 63.9 °F 99% 30.18 in 7.0 mi Calm Calm - N/A Rain Light Rain
5:35 AM 63.9 °F 63.5 °F 99% 30.17 in 7.0 mi Calm Calm - N/A Rain Light Rain
5:55 AM 63.9 °F 63.5 °F 99% 30.17 in 10.0 mi Calm Calm - N/A Rain Light Rain
6:15 AM 63.9 °F 63.5 °F 99% 30.17 in 10.0 mi Calm Calm - N/A Rain Light Rain
6:35 AM 63.9 °F 63.7 °F 99% 30.17 in 10.0 mi Calm Calm - N/A   Overcast
6:55 AM 64.0 °F 63.7 °F 99% 30.18 in 10.0 mi Calm Calm - N/A   Overcast
7:15 AM 64.0 °F 63.7 °F 99% 30.18 in 10.0 mi Calm Calm - N/A   Overcast
7:35 AM 63.9 °F 63.7 °F 99% 30.18 in 10.0 mi Calm Calm - N/A   Overcast
7:55 AM 64.4 °F 63.9 °F 98% 30.18 in 10.0 mi Calm Calm - N/A   Overcast
8:15 AM 64.8 °F 64.4 °F 99% 30.18 in 10.0 mi East 3.5 mph - N/A   Light Drizzle
8:35 AM 65.5 °F 64.2 °F 96% 30.18 in 10.0 mi Calm Calm - N/A   Overcast
8:55 AM 66.0 °F 64.2 °F 94% 30.18 in 10.0 mi Calm Calm - N/A   Light Drizzle
9:15 AM 66.2 °F 64.6 °F 94% 30.18 in 10.0 mi Calm Calm - N/A Rain Light Rain
9:35 AM 66.6 °F 64.9 °F 95% 30.18 in 10.0 mi Calm Calm - N/A Rain Light Rain
9:55 AM 66.7 °F 65.3 °F 95% 30.19 in 10.0 mi Calm Calm - N/A Rain Light Rain
10:15 AM 66.6 °F 65.7 °F 97% 30.19 in 10.0 mi Calm Calm - N/A Rain Light Rain
10:35 AM 67.8 °F 66.4 °F 95% 30.20 in 7.0 mi Calm Calm - N/A   Overcast
10:55 AM 68.2 °F 66.4 °F 94% 30.20 in 10.0 mi Calm Calm - N/A   Overcast
11:15 AM 68.9 °F 66.4 °F 92% 30.20 in 10.0 mi Calm Calm - N/A   Overcast
11:35 AM 68.7 °F 66.0 °F 91% 30.20 in 10.0 mi Calm Calm - N/A   Light Drizzle
11:55 AM 69.3 °F 65.8 °F 89% 30.20 in 10.0 mi Calm Calm - N/A   Overcast
12:15 PM 70.0 °F 65.8 °F 87% 30.20 in 10.0 mi Calm Calm - N/A   Overcast
12:35 PM 70.3 °F 66.6 °F 88% 30.19 in 10.0 mi Calm Calm - N/A   Overcast
12:55 PM 72.0 °F 66.9 °F 84% 30.18 in 10.0 mi Calm Calm - N/A   Overcast
1:15 PM 72.5 °F 67.6 °F 85% 30.18 in 10.0 mi Calm Calm - N/A   Overcast
1:35 PM 72.5 °F 68.2 °F 86% 30.18 in 10.0 mi West 3.5 mph - N/A   Overcast
1:55 PM 73.9 °F 68.7 °F 84% 30.17 in 10.0 mi Calm Calm - N/A   Overcast
2:15 PM 74.7 °F 68.0 °F 80% 30.17 in 10.0 mi Calm Calm - N/A   Overcast
2:35 PM 76.3 °F 69.3 °F 79% 30.16 in 10.0 mi West 4.6 mph - N/A   Overcast
2:55 PM 75.6 °F 67.8 °F 77% 30.16 in 10.0 mi WSW 3.5 mph - N/A   Overcast
3:15 PM 75.2 °F 68.4 °F 79% 30.15 in 10.0 mi WNW 4.6 mph - N/A   Overcast
3:35 PM 75.9 °F 68.5 °F 78% 30.14 in 10.0 mi Calm Calm - N/A   Mostly Cloudy
3:55 PM 76.6 °F 68.9 °F 77% 30.14 in 10.0 mi Calm Calm - N/A   Scattered Clouds
4:15 PM 75.7 °F 68.5 °F 78% 30.13 in 10.0 mi Calm Calm - N/A   Mostly Cloudy
4:35 PM 75.2 °F 68.4 °F 79% 30.12 in 10.0 mi West 3.5 mph - N/A   Mostly Cloudy
4:55 PM 72.7 °F 70.2 °F 92% 30.12 in 7.0 mi WNW 6.9 mph - N/A   Drizzle
5:15 PM 72.7 °F 69.6 °F 90% 30.12 in 10.0 mi NW 5.8 mph - N/A   Overcast
5:35 PM 73.8 °F 69.1 °F 85% 30.12 in 10.0 mi Calm Calm - N/A   Overcast
5:55 PM 73.4 °F 68.7 °F 85% 30.12 in 10.0 mi Calm Calm - N/A   Mostly Cloudy
6:15 PM 74.1 °F 68.7 °F 83% 30.12 in 10.0 mi Calm Calm - N/A   Mostly Cloudy
6:35 PM 74.3 °F 69.1 °F 84% 30.12 in 10.0 mi Calm Calm - N/A   Overcast
6:55 PM 73.9 °F 69.4 °F 86% 30.12 in 10.0 mi Calm Calm - N/A   Mostly Cloudy
7:15 PM 74.1 °F 69.1 °F 84% 30.12 in 10.0 mi Calm Calm - 0.01 in   Mostly Cloudy
7:35 PM 73.9 °F 69.8 °F 87% 30.13 in 10.0 mi Calm Calm - 0.01 in   Overcast
7:55 PM 73.0 °F 70.2 °F 91% 30.13 in 10.0 mi Calm Calm - 0.01 in   Overcast
8:15 PM 72.3 °F 70.9 °F 95% 30.13 in 10.0 mi Calm Calm - N/A   Mostly Cloudy
8:35 PM 70.7 °F 69.4 °F 96% 30.13 in 10.0 mi NW 3.5 mph - N/A   Mostly Cloudy
8:55 PM 69.8 °F 69.1 °F 98% 30.14 in 10.0 mi Calm Calm - N/A   Scattered Clouds
9:15 PM 69.1 °F 68.5 °F 98% 30.15 in 10.0 mi Calm Calm - N/A   Scattered Clouds
9:35 PM 68.9 °F 68.4 °F 98% 30.15 in 10.0 mi Calm Calm - N/A   Mostly Cloudy
9:55 PM 68.4 °F 68.0 °F 99% 30.16 in 10.0 mi Calm Calm - N/A   Overcast
10:15 PM 68.9 °F 68.2 °F 98% 30.16 in 10.0 mi Calm Calm - N/A   Overcast
10:35 PM 68.4 °F 68.2 °F 99% 30.17 in 10.0 mi Calm Calm - N/A   Overcast
10:55 PM 68.4 °F 68.2 °F 99% 30.17 in 10.0 mi Calm Calm - N/A   Overcast
11:15 PM 68.2 °F 68.0 °F 99% 30.18 in 10.0 mi Calm Calm - N/A   Overcast
11:35 PM 68.4 °F 68.2 °F 99% 30.18 in 10.0 mi Calm Calm - N/A   Overcast
11:55 PM 68.4 °F 68.2 °F 99% 30.18 in 3.0 mi Calm Calm - N/A   Overcast